Regional Weather Roundup
Issued by NWS

Home | Current Version | Previous Version | Text Only | Print | Product List | Glossary Off
Versions: 1 2 3 4 5 6 7 8 9 10 11 12 13 14 15 16 17 18 19 20 21 22 23 24 25 26 27 28 29 30 31 32 33 34 35 36 37 38 39 40 41 42 43 44 45 46 47 48 49 50

000
ASUS44 KMEG 280100
RWRTN
TENNESSEE HOURLY STATE WEATHER ROUNDUP
NATIONAL WEATHER SERVICE MEMPHIS TN
700 PM CST FRI FEB 27 2015

TNZ002-004-019-021-049-052-054-088>092-280200-
WEST TENNESSEE

CITY           SKY/WX    TMP DP  RH WIND       PRES   REMARKS
MEMPHIS INTL   CLOUDY    29  14  53 NE13      30.55F WCI  19
NWS MEMPHIS      N/A     28 N/A N/A MISG        N/A
JACKSON        CLOUDY    29  12  49 N13       30.56R WCI  19
DYERSBURG      CLOUDY    25   5  42 NE12      30.61F WCI  14
UNION CITY     CLEAR     23  12  63 NE9       30.59S WCI  13
PARIS          PTCLDY    23   9  54 NE8       30.59R WCI  14
LEXINGTON      MOCLDY    28  10  47 N12       30.55R WCI  18
SAVANNAH       PTCLDY    30  10  43 N8        30.53R WCI  23
$$

TNZ008-025-027-028-033-062-065-066-280200-
NORTH MIDDLE TENNESSEE

CITY           SKY/WX    TMP DP  RH WIND       PRES   REMARKS
NASHVILLE      CLOUDY    28  10  46 N10       30.57R WCI  19
CLARKSVILLE    CLOUDY    24  11  57 N10       30.60R WCI  14
COOKEVILLE     CLEAR     25  10  54 NE7       30.51R WCI  17
CROSSVILLE     CLEAR     25   8  48 N8        30.45R WCI  16
$$

TNZ061-075-076-078-094-096-097-280200-
SOUTH MIDDLE TENNESSEE

CITY           SKY/WX    TMP DP  RH WIND       PRES   REMARKS
FAYETTEVILLE   CLEAR     27  12  54 N9          N/A  WCI  17
TULLAHOMA      CLEAR     27   9  46 N5        30.49R WCI  21
WINCHESTER     CLEAR     27  14  59 N7        30.49R WCI  19
COLUMBIA         N/A     28  12  50 N8        30.53R WCI  20
SHELBYVILLE    CLEAR     27  12  54 N8        30.52R WCI  18
$$

TNZ017-018-042-046-047-280200-
NORTHEAST TENNESSEE

CITY           SKY/WX    TMP DP  RH WIND       PRES   REMARKS
TRI CITIES     PTCLDY    25  16  68 CALM      30.46R
ELIZABETHTON   CLEAR     21  18  86 CALM      30.45S
$$

TNZ012-013-036-069-073-074-280200-
CENTRAL EAST TENNESSEE

CITY           SKY/WX    TMP DP  RH WIND       PRES   REMARKS
KNOXVILLE      CLEAR     29  14  53 N8        30.48R WCI  21
OAK RIDGE      CLEAR     29   9  43 NE5       30.51R WCI  24
GATLINBURG     CLEAR     27  16  63 CALM      30.48R
$$

TNZ083-085-099-280200-
SOUTHEAST TENNESSEE

CITY           SKY/WX    TMP DP  RH WIND       PRES   REMARKS
CHATTANOOGA    CLEAR     35  14  42 NE9       30.48R WCI  28
$$

SKY/WX REPORTED AS FAIR MEANS FEW OR NO CLOUDS BELOW
12 THOUSAND FEET.




USA.gov is the U.S. government's official web portal to all federal, state and local government web resources and services.